Location: Carri�res
(48.9069°N, 2.1792°E)
Time: 08:00:34
(UTC+00:00)

Cosmos 1455 - Visible Passes

Search period start: 11 May 2021 00:00
Search period end: 21 May 2021 00:00
Orbit: 498 x 521 km, 82.5° (Epoch: 10 May)

Date Brightness Start Highest point End Pass type
(mag) Time Alt. Az. Time Alt. Az. Time Alt. Az.
12 May 3.3 03:22:36 10° N 03:26:20 49° ENE 03:30:04 10° SSE visible
13 May 3.8 03:05:42 10° N 03:09:20 39° ENE 03:12:57 10° SE visible
14 May 4.2 02:48:50 10° N 02:52:18 31° ENE 02:55:46 10° SE visible
15 May 4.5 02:32:01 10° NNE 02:35:16 25° ENE 02:38:31 10° SE visible
16 May 4.8 02:15:14 10° NNE 02:18:13 21° ENE 02:21:12 10° ESE visible
17 May 5.0 01:58:32 10° NNE 02:01:09 17° ENE 02:03:46 10° ESE visible
18 May 5.1 01:41:56 10° NNE 01:44:05 14° ENE 01:46:13 10° E visible
18 May 2.3 03:16:14 10° NNW 03:20:02 56° W 03:23:49 10° S visible
19 May 5.3 01:25:32 10° NE 01:26:59 12° ENE 01:28:25 10° E visible
19 May 2.2 02:59:13 10° NNW 03:03:05 72° W 03:06:55 10° S visible
20 May 2.2 02:42:14 10° N 02:46:06 89° E 02:49:59 10° S visible
